Location: Newark
(15.4608°S, 41.1635°W)
Time: 16:17:12
(UTC+00:00)

Hubble Space Telescope - Visible Passes

Search period start: 20 June 2021 00:00
Search period end: 30 June 2021 00:00
Orbit: 535 x 539 km, 28.5° (Epoch: 19 June)

Date Brightness Start Highest point End Pass type
(mag) Time Alt. Az. Time Alt. Az. Time Alt. Az.
20 Jun 2.5 07:55:38 19° SSW 07:56:59 22° SSE 08:00:15 10° ESE visible
21 Jun 2.2 07:45:20 24° S 07:46:08 26° SSE 07:49:39 10° ESE visible
22 Jun 1.9 07:35:04 31° SSE 07:35:16 32° SSE 07:39:00 10° E visible
23 Jun 1.8 07:24:48 38° SE 07:24:48 38° SE 07:28:18 10° E visible
23 Jun 3.7 22:42:04 10° NNW 22:42:21 11° NNW 22:42:21 11° NNW visible
24 Jun 1.9 07:14:34 39° ESE 07:14:34 39° ESE 07:17:31 10° E visible
24 Jun 3.1 22:30:44 10° NW 22:32:08 19° NNW 22:32:08 19° NNW visible
25 Jun 2.5 07:04:21 32° E 07:04:21 32° E 07:06:41 10° ENE visible
25 Jun 2.5 08:40:19 10° W 08:43:35 22° NNW 08:46:50 10° NNE visible
25 Jun 2.3 22:19:30 10° NW 22:21:56 30° NNW 22:21:56 30° NNW visible
26 Jun 3.1 06:54:09 23° ENE 06:54:09 23° ENE 06:55:46 10° ENE visible
26 Jun 2.8 08:29:56 10° WNW 08:32:36 16° NNW 08:35:15 10° N visible
26 Jun 1.4 22:08:25 10° NW 22:11:45 51° NNW 22:11:45 51° NNW visible
27 Jun 3.6 06:43:57 15° NE 06:43:57 15° NE 06:44:45 10° NE visible
27 Jun 3.1 08:20:01 10° NW 08:21:37 12° NNW 08:23:12 10° N visible
27 Jun 0.6 21:57:24 10° WNW 22:01:32 85° NNE 22:01:33 85° NE visible
28 Jun 0.8 21:46:28 10° WNW 21:50:35 71° SSW 21:51:19 55° SE visible
29 Jun 1.2 21:35:37 10° W 21:39:39 53° SSW 21:41:05 34° SE visible
